STARLINK-32459, 61715

Orbit data source: Space-Track

STARLINK-32459, 61715 is a payload satellite owned by SpaceX/Seattle (US) in LEO that was launched on Wed, 30 Oct 2024 UTC via an FALCON 9 launch vehicle from the Air Force Eastern Test Range (AFETR). Payload-class satellites include a variety of spacecraft equipped with specific instruments for various scientific and technological missions. These include communications satellites like Starlink; space stations such as the ISS; scientific satellites like the Hubble; Earth observation satellites from companies like Planet Labs, Umbra, and HawkEye 360; GPS; miniature CubeSats for education and research; and military/defense satellites.

Loading next visibility...
Identifier
61715, 2024-196J
Orbit
LEO
Country
Flag of USUS
Related business
Manufacturer
SpaceX/Seattle
Mission
Operational Commercial Communications
Bus & Motor
STARLINK V2M, Unknown motor
Mass
730 kg wet, ~700 kg dry
Launch date (UTC)
Icon of a cake. It is the launch day of the satellite!2024-10-30 (1 year ago)
Launch vehicle
FALCON 9
Launch site
Air Force Eastern Test Range (AFETR)
Object type
Payload
Rocket body
Debris
Shape & HBR
Box + 2 Pan, 17.7 m
Radar Cross Section
33.884 m², Large (>1 m²)

Expand to show TLE details & history
Last TLE update: 9 hours ago

TLE from 9 hours ago
0 STARLINK-32459
1 61715U 24196J   25303.29193523  .00000522  00000-0  29760-4 0  9996
2 61715  53.1609 346.9150 0001174  82.9974 277.1160 15.30185387 57193
Epoch: 2025-10-30T07:00Z
TLE epoch observation values (Epoch: 2025-10-30T07:00:23.203Z)
Latitude
-0.00006°
Longitude
-157.03455°
Altitude
476.059 km
Speed
7.629 km/s
True Right ascension
23h 07m 39s
True Declination
0° 00' 00"
Sunlit
Object was in full shadow at epoch
Visualization orbit readout
Latitude
Unknown
Longitude
Unknown
Altitude
Unknown
Speed
Unknown
Apparent Right ascension
Unknown
Apparent Declination
Unknown
Sunlit
N/A
Visualization observer readout
Local Sidereal Time
11:50:00
Azimuth
Unknown
Elevation
Unknown
Doppler factor
Unknown
Orbital elements
Apogee altitude
476.32 km
Perigee altitude
474.71 km
Semi-major axis
6,853.652 km
Eccentricity
0.00012
Inclination
53.1609°
RAAN
346.915°
Arg. of periapsis
82.9974°
True anomaly
277.10265°
Mean anomaly
277.116°
Eccentric anomaly
277.10933°
Mean motion
3.82525 °/min
Orbital period
94.11 mins
BSTAR
0.00002976
Loading maneuver chart data...
Computing Atmospheric mass density...
Loading historical data...
Loading historical data...
Loading historical data...
Loading historical data...
Loading historical data...
Loading historical data...
Loading historical data...

Documentation

Showing up to 5 results
|